When you browse on this site, cookies collect data to enhance your experience and personalize the content and advertising you see.
Visit our Privacy Policy to learn more. By continuing to use the site, you agree to this use of cookies and data.
  • Em Portugal
  • Lista de países
  • Para 7 dias
  • Temperatura da água
  • Mapas de satélite
  • Mapa do tempo
  • Widgets de tempo
  • user-avatar
    Iniciar Sessão

    Previsão horária em Haetchina

    Hoje, 21 Janeiro, Segunda-feira

    Tempo Temperatura Precipitação Vento Pressão Humidade
    00:00 -9°C° 0 mm 3 m/s 739 mmHg 95%
    01:00 -10°C° 0 mm 3 m/s 739 mmHg 96%
    02:00 -12°C° 0 mm 3 m/s 739 mmHg 96%
    03:00 -12°C° 0 mm 3 m/s 739 mmHg 96%
    04:00 -13°C° 0 mm 3 m/s 739 mmHg 96%
    05:00 -13°C° 0 mm 3 m/s 739 mmHg 96%
    06:00 -13°C° 0 mm 3 m/s 740 mmHg 96%
    07:00 -14°C° 0 mm 3 m/s 740 mmHg 96%
    08:00 -14°C° 0 mm 4 m/s 740 mmHg 96%
    09:00 -12°C° 0 mm 4 m/s 740 mmHg 95%
    10:00 -11°C° 0 mm 4 m/s 741 mmHg 94%
    11:00 -10°C° 0 mm 4 m/s 741 mmHg 92%
    12:00 -10°C° 0 mm 4 m/s 741 mmHg 92%
    13:00 -10°C° 0 mm 4 m/s 741 mmHg 92%
    14:00 -10°C° 0 mm 4 m/s 741 mmHg 92%
    15:00 -10°C° 0 mm 4 m/s 741 mmHg 92%
    16:00 -11°C° 0 mm 4 m/s 741 mmHg 93%
    17:00 -11°C° 0 mm 4 m/s 741 mmHg 94%
    18:00 -10°C° 0 mm 3 m/s 741 mmHg 94%
    19:00 -12°C° 0 mm 3 m/s 742 mmHg 95%
    20:00 -12°C° 0 mm 3 m/s 742 mmHg 95%
    21:00 -12°C° 0 mm 3 m/s 742 mmHg 96%
    22:00 -13°C° 0 mm 3 m/s 742 mmHg 97%
    23:00 -12°C° 0 mm 2 m/s 743 mmHg 97%

    Amanhã, 22 Janeiro, Terça-feira

    Tempo Temperatura Precipitação Vento Pressão Humidade
    00:00 -13°C° 0 mm 2 m/s 743 mmHg 97%
    01:00 -12°C° 0 mm 1 m/s 743 mmHg 98%
    02:00 -13°C° 0 mm 1 m/s 744 mmHg 98%
    03:00 -13°C° 0 mm 1 m/s 744 mmHg 98%
    04:00 -14°C° 0 mm 1 m/s 744 mmHg 98%
    05:00 -14°C° 0 mm 0 m/s 744 mmHg 98%
    06:00 -15°C° 0 mm 0 m/s 744 mmHg 98%
    07:00 -15°C° 0 mm 0 m/s 744 mmHg 98%
    08:00 -15°C° 0 mm 0 m/s 744 mmHg 98%
    09:00 -14°C° 0 mm 0 m/s 744 mmHg 97%
    10:00 -12°C° 0 mm 1 m/s 744 mmHg 95%
    11:00 -11°C° 0 mm 1 m/s 745 mmHg 94%
    12:00 -10°C° 0 mm 1 m/s 744 mmHg 93%
    13:00 -9°C° 0 mm 1 m/s 744 mmHg 92%
    14:00 -9°C° 0 mm 1 m/s 744 mmHg 91%
    15:00 -9°C° 0 mm 1 m/s 744 mmHg 92%
    16:00 -9°C° 0 mm 1 m/s 744 mmHg 93%
    17:00 -9°C° 0 mm 1 m/s 744 mmHg 94%
    18:00 -9°C° 0 mm 1 m/s 744 mmHg 94%
    19:00 -9°C° 0 mm 1 m/s 744 mmHg 95%
    20:00 -10°C° 0 mm 1 m/s 744 mmHg 95%
    21:00 -10°C° 0 mm 1 m/s 744 mmHg 95%
    22:00 -10°C° 0 mm 1 m/s 744 mmHg 95%
    23:00 -12°C° 0 mm 2 m/s 744 mmHg 95%

    Depois de amanhã, 23 Janeiro, Quarta-feira

    Tempo Temperatura Precipitação Vento Pressão Humidade
    00:00 -10°C° 0 mm 1 m/s 744 mmHg 96%
    01:00 -9°C° 0 mm 1 m/s 744 mmHg 96%
    02:00 -9°C° 0 mm 1 m/s 744 mmHg 96%
    03:00 -9°C° 0 mm 2 m/s 744 mmHg 97%
    04:00 -9°C° 0 mm 2 m/s 744 mmHg 97%
    05:00 -9°C° 0 mm 2 m/s 743 mmHg 97%
    06:00 -9°C° 0 mm 2 m/s 743 mmHg 97%
    07:00 -10°C° 0 mm 2 m/s 743 mmHg 96%
    08:00 -13°C° 0 mm 3 m/s 744 mmHg 96%
    09:00 -13°C° 0 mm 3 m/s 743 mmHg 93%
    10:00 -14°C° 0 mm 3 m/s 743 mmHg 91%
    11:00 -15°C° 0 mm 3 m/s 743 mmHg 88%
    12:00 -15°C° 0 mm 3 m/s 743 mmHg 88%
    13:00 -14°C° 0 mm 3 m/s 743 mmHg 88%
    14:00 -14°C° 0 mm 3 m/s 743 mmHg 88%
    15:00 -15°C° 0 mm 3 m/s 742 mmHg 90%
    16:00 -16°C° 0 mm 3 m/s 742 mmHg 91%
    17:00 -18°C° 0 mm 3 m/s 742 mmHg 92%
    18:00 -18°C° 0 mm 3 m/s 742 mmHg 92%
    19:00 -18°C° 0 mm 3 m/s 742 mmHg 91%
    20:00 -19°C° 0 mm 3 m/s 742 mmHg 91%
    21:00 -19°C° 0 mm 3 m/s 742 mmHg 91%
    22:00 -19°C° 0 mm 3 m/s 742 mmHg 90%
    23:00 -19°C° 0 mm 3 m/s 742 mmHg 90%

    24 Janeiro, Quinta-feira

    Tempo Temperatura Precipitação Vento Pressão Humidade
    00:00 -19°C° 0 mm 3 m/s 742 mmHg 89%
    01:00 -21°C° 0 mm 3 m/s 742 mmHg 89%
    02:00 -19°C° 0 mm 2 m/s 742 mmHg 88%
    03:00 -21°C° 0 mm 3 m/s 742 mmHg 88%
    04:00 -21°C° 0 mm 3 m/s 741 mmHg 87%
    05:00 -21°C° 0 mm 3 m/s 741 mmHg 87%
    06:00 -21°C° 0 mm 3 m/s 742 mmHg 86%
    07:00 -19°C° 0 mm 2 m/s 742 mmHg 85%
    08:00 -19°C° 0 mm 2 m/s 742 mmHg 85%
    09:00 -18°C° 0 mm 2 m/s 742 mmHg 84%
    10:00 -16°C° 0 mm 2 m/s 742 mmHg 83%
    11:00 -15°C° 0 mm 2 m/s 743 mmHg 83%
    12:00 -14°C° 0 mm 2 m/s 743 mmHg 83%
    13:00 -13°C° 0 mm 2 m/s 743 mmHg 83%
    14:00 -12°C° 0 mm 2 m/s 743 mmHg 84%
    15:00 -14°C° 0 mm 2 m/s 743 mmHg 84%
    16:00 -15°C° 0 mm 2 m/s 743 mmHg 84%
    17:00 -16°C° 0 mm 2 m/s 743 mmHg 84%
    18:00 -16°C° 0 mm 2 m/s 743 mmHg 85%
    19:00 -17°C° 0 mm 2 m/s 744 mmHg 85%
    20:00 -17°C° 0 mm 2 m/s 744 mmHg 85%
    21:00 -17°C° 0 mm 2 m/s 744 mmHg 87%
    22:00 -17°C° 0 mm 2 m/s 744 mmHg 90%
    23:00 -17°C° 0 mm 2 m/s 744 mmHg 92%

    25 Janeiro, Sexta-feira

    Tempo Temperatura Precipitação Vento Pressão Humidade
    00:00 -18°C° 0 mm 2 m/s 744 mmHg 94%
    01:00 -18°C° 0 mm 2 m/s 745 mmHg 96%
    02:00 -19°C° 0 mm 3 m/s 745 mmHg 97%
    03:00 -18°C° 0 mm 3 m/s 745 mmHg 97%
    04:00 -18°C° 0 mm 3 m/s 745 mmHg 98%
    05:00 -18°C° 0 mm 3 m/s 745 mmHg 98%
    06:00 -19°C° 0 mm 3 m/s 745 mmHg 97%
    07:00 -19°C° 0 mm 3 m/s 745 mmHg 97%
    08:00 -21°C° 0 mm 3 m/s 745 mmHg 97%
    09:00 -19°C° 0 mm 3 m/s 746 mmHg 95%
    10:00 -18°C° 0 mm 3 m/s 746 mmHg 93%
    11:00 -18°C° 0 mm 4 m/s 746 mmHg 91%
    12:00 -16°C° 0 mm 3 m/s 746 mmHg 91%
    13:00 -16°C° 0 mm 3 m/s 746 mmHg 91%
    14:00 -15°C° 0 mm 3 m/s 745 mmHg 90%
    15:00 -16°C° 0 mm 3 m/s 745 mmHg 91%
    16:00 -18°C° 0 mm 3 m/s 745 mmHg 91%
    17:00 -19°C° 0 mm 3 m/s 745 mmHg 92%
    18:00 -21°C° 0 mm 3 m/s 745 mmHg 91%
    19:00 -21°C° 0 mm 3 m/s 746 mmHg 91%
    20:00 -22°C° 0 mm 3 m/s 746 mmHg 91%
    21:00 -22°C° 0 mm 3 m/s 746 mmHg 90%
    22:00 -22°C° 0 mm 3 m/s 746 mmHg 90%
    23:00 -23°C° 0 mm 3 m/s 746 mmHg 90%

    26 Janeiro, Sábado

    Tempo Temperatura Precipitação Vento Pressão Humidade
    00:00 -21°C° 0 mm 2 m/s 746 mmHg 90%
    01:00 -21°C° 0 mm 2 m/s 746 mmHg 90%
    02:00 -21°C° 0 mm 2 m/s 745 mmHg 90%
    03:00 -21°C° 0 mm 2 m/s 745 mmHg 89%
    04:00 -21°C° 0 mm 2 m/s 745 mmHg 89%
    05:00 -21°C° 0 mm 2 m/s 745 mmHg 89%
    06:00 -21°C° 0 mm 2 m/s 745 mmHg 89%
    07:00 -21°C° 0 mm 2 m/s 745 mmHg 89%
    08:00 -21°C° 0 mm 2 m/s 745 mmHg 89%
    09:00 -20°C° 0 mm 2 m/s 745 mmHg 87%
    10:00 -19°C° 0 mm 2 m/s 744 mmHg 86%
    11:00 -18°C° 0 mm 2 m/s 744 mmHg 85%
    12:00 -17°C° 0 mm 2 m/s 744 mmHg 86%
    13:00 -17°C° 0 mm 2 m/s 743 mmHg 86%
    14:00 -16°C° 0 mm 2 m/s 743 mmHg 87%
    15:00 -17°C° 0 mm 2 m/s 743 mmHg 88%
    16:00 -19°C° 0 mm 2 m/s 743 mmHg 89%
    17:00 -22°C° 0 mm 3 m/s 743 mmHg 90%
    18:00 -23°C° 0 mm 3 m/s 742 mmHg 90%
    19:00 -23°C° 0 mm 3 m/s 742 mmHg 90%
    20:00 -23°C° 0 mm 3 m/s 742 mmHg 89%
    21:00 -24°C° 0 mm 3 m/s 742 mmHg 90%
    22:00 -24°C° 0 mm 3 m/s 742 mmHg 90%
    23:00 -24°C° 0 mm 3 m/s 742 mmHg 90%
    Mostrar mais